Weather History for KISW - October, 2012

Change the Weather History Date:

Thursday, October 18, 2012

  Actual Average Record
Temperature  
Mean Temperature 46 °F -  
Max Temperature 50 °F 52 °F 85 °F (1950)
Min Temperature 42 °F 34 °F 10 °F (1948)
Degree Days  
Heating Degree Days 19    
Moisture  
Dew Point 42 °F    
Average Humidity 88    
Maximum Humidity 93    
Minimum Humidity 80    
Precipitation  
Precipitation 0.15 in - - ()
Sea Level Pressure  
Sea Level Pressure 29.29 in    
Wind  
Wind Speed 6 mph (SSW)    
Max Wind Speed 9 mph    
Max Gust Speed -    
Visibility 10 miles    
Events Rain    
Averages and records for this station are not official NWS values.
T = Trace of Precipitation, MM = Missing Value Source: NWS Daily Summary

Daily Weather History Graph

Daily Weather History Graph

Search for Another Location

Airport or City:

Trip Planner

Search our weather history database for the weather conditions in past years. The results will help you decide how hot, cold, wet, or windy it might be!

Date:

Astronomy

Oct. 18, 2012 Rise Set
Actual Time 7:18 AM CDT 6:09 PM CDT
Civil Twilight 6:49 AM CDT 6:38 PM CDT
Nautical Twilight 6:15 AM CDT 7:12 PM CDT
Astronomical Twilight 5:42 AM CDT 7:45 PM CDT
Moon 11:08 AM CDT (10/18) 8:35 PM CDT (10/18)
Length of Visible Light 11h 49m
Length of Day
10h 50m
Waxing Crescent, 14% of the Moon is Illuminated
Oct 18
Waxing Crescent
Oct 21
First Quarter
Oct 29
Full
Nov 6
Last Quarter
Nov 13
New

Hourly Weather History & Observations

Time (CDT) Temp. Windchill Dew Point Humidity Pressure Visibility Wind Dir Wind Speed Gust Speed Precip Events Conditions
12:54 AM 50.0 °F - 46.0 °F 86% 29.24 in 10.0 mi West 9.2 mph - 0.00 in   Overcast
1:54 AM 48.0 °F - 44.1 °F 86% 29.22 in 10.0 mi West 6.9 mph - N/A   Overcast
2:54 AM 46.9 °F - 44.1 °F 90% 29.23 in 9.0 mi WSW 5.8 mph - 0.04 in Rain Light Rain
3:01 AM 46.4 °F 43.5 °F 44.6 °F 93% 29.23 in 10.0 mi WSW 5.8 mph - 0.00 in Rain Light Rain
3:54 AM 46.9 °F - 44.1 °F 90% 29.22 in 10.0 mi WSW 5.8 mph - 0.01 in Rain Light Rain
4:54 AM 46.0 °F 42.5 °F 44.1 °F 93% 29.21 in 10.0 mi SW 6.9 mph - 0.00 in   Overcast
5:41 AM 46.4 °F 44.3 °F 44.6 °F 93% 29.21 in 10.0 mi SW 4.6 mph - N/A   Overcast
5:54 AM 46.0 °F 41.9 °F 43.0 °F 89% 29.22 in 10.0 mi SW 8.1 mph - N/A   Overcast
6:05 AM 46.4 °F 42.4 °F 42.8 °F 87% 29.21 in 10.0 mi WSW 8.1 mph - N/A   Overcast
6:54 AM 45.0 °F 41.8 °F 42.1 °F 90% 29.22 in 10.0 mi WSW 5.8 mph - N/A   Overcast
7:54 AM 45.0 °F 41.8 °F 42.1 °F 90% 29.24 in 10.0 mi SSW 5.8 mph - N/A   Overcast
8:54 AM 45.0 °F 40.1 °F 41.0 °F 86% 29.25 in 10.0 mi SW 9.2 mph - N/A   Overcast
9:22 AM 44.6 °F 39.7 °F 41.0 °F 87% 29.24 in 10.0 mi SW 9.2 mph - N/A   Overcast
9:54 AM 46.0 °F 43.9 °F 42.1 °F 86% 29.26 in 10.0 mi SSW 4.6 mph - N/A   Overcast
10:24 AM 46.4 °F 43.5 °F 41.0 °F 81% 29.24 in 10.0 mi South 5.8 mph - N/A   Overcast
10:54 AM 46.9 °F - 41.0 °F 80% 29.26 in 10.0 mi SSW 8.1 mph - N/A   Overcast
11:40 AM 46.4 °F 42.4 °F 41.0 °F 81% 29.25 in 10.0 mi SSW 8.1 mph - N/A   Overcast
11:54 AM 45.0 °F 41.2 °F 41.0 °F 86% 29.27 in 4.0 mi South 6.9 mph - 0.01 in Rain Rain
12:54 PM 46.9 °F - 41.0 °F 80% 29.27 in 10.0 mi South 8.1 mph - 0.01 in   Overcast
1:08 PM 46.4 °F 42.4 °F 42.8 °F 87% 29.26 in 10.0 mi SSW 8.1 mph - N/A   Overcast
1:28 PM 46.4 °F 42.9 °F 42.8 °F 87% 29.27 in 10.0 mi South 6.9 mph - N/A   Overcast
1:54 PM 46.0 °F 43.1 °F 43.0 °F 89% 29.28 in 10.0 mi SSE 5.8 mph - 0.02 in   Overcast
2:06 PM 46.4 °F 43.5 °F 42.8 °F 87% 29.27 in 10.0 mi SSE 5.8 mph - 0.00 in Rain Light Rain
2:13 PM 44.6 °F 42.2 °F 42.8 °F 93% 29.27 in 5.0 mi South 4.6 mph - 0.01 in Rain Light Rain
2:51 PM 44.6 °F 43.1 °F 42.8 °F 93% 29.28 in 10.0 mi South 3.5 mph - 0.04 in Rain Light Rain
2:54 PM 45.0 °F 41.8 °F 43.0 °F 93% 29.30 in 10.0 mi South 5.8 mph - 0.04 in Rain Light Rain
3:13 PM 46.4 °F 42.9 °F 42.8 °F 87% 29.29 in 10.0 mi South 6.9 mph - 0.00 in Rain Light Rain
3:20 PM 44.6 °F 40.7 °F 42.8 °F 93% 29.29 in 10.0 mi South 6.9 mph - 0.00 in Rain Light Rain
3:30 PM 46.4 °F 43.5 °F 42.8 °F 87% 29.30 in 10.0 mi South 5.8 mph - 0.00 in Rain Light Rain
3:44 PM 46.4 °F 42.9 °F 42.8 °F 87% 29.30 in 10.0 mi South 6.9 mph - 0.00 in   Overcast
3:51 PM 46.4 °F 42.9 °F 42.8 °F 87% 29.31 in 10.0 mi South 6.9 mph - 0.00 in   Overcast
3:54 PM 46.0 °F 41.9 °F 42.1 °F 86% 29.32 in 10.0 mi South 8.1 mph - 0.00 in   Overcast
4:01 PM 46.4 °F 42.9 °F 42.8 °F 87% 29.31 in 10.0 mi South 6.9 mph - N/A   Overcast
4:52 PM 44.6 °F 41.4 °F 41.0 °F 87% 29.33 in 10.0 mi South 5.8 mph - 0.01 in Rain Light Rain
4:54 PM 45.0 °F 41.8 °F 42.1 °F 90% 29.35 in 10.0 mi South 5.8 mph - 0.01 in Rain Light Rain
5:38 PM 44.6 °F 42.2 °F 41.0 °F 87% 29.35 in 8.0 mi SSE 4.6 mph - 0.01 in Rain Light Rain
5:54 PM 43.0 °F 39.5 °F 39.9 °F 89% 29.37 in 10.0 mi SSE 5.8 mph - 0.01 in Rain Light Rain
6:54 PM 43.0 °F - 41.0 °F 93% 29.39 in 10.0 mi Calm Calm - 0.00 in   Overcast
7:33 PM 42.8 °F 40.1 °F 39.2 °F 87% 29.38 in 10.0 mi South 4.6 mph - N/A   Overcast
7:54 PM 43.0 °F - 41.0 °F 93% 29.40 in 10.0 mi Calm Calm - N/A   Overcast
8:08 PM 42.8 °F - 41.0 °F 93% 29.39 in 10.0 mi Calm Calm - N/A   Overcast
8:54 PM 43.0 °F 41.3 °F 39.9 °F 89% 29.41 in 10.0 mi SE 3.5 mph - N/A   Overcast
9:54 PM 43.0 °F 41.3 °F 39.9 °F 89% 29.42 in 10.0 mi ESE 3.5 mph - N/A   Overcast
10:54 PM 43.0 °F 41.3 °F 39.9 °F 89% 29.42 in 10.0 mi ESE 3.5 mph - N/A   Overcast
11:54 PM 42.1 °F 40.2 °F 39.9 °F 92% 29.44 in 10.0 mi ESE 3.5 mph - N/A   Overcast